Regional Weather Roundup
Issued by NWS Sterling, VA

Current Version | Previous Version | Text Only | Print | Product List | Glossary On
Versions: 1 2 3 4 5 6 7 8 9 10 11 12 13 14 15 16 17 18 19 20 21 22 23 24 25 26 27 28 29 30 31 32 33 34 35 36 37 38 39 40 41 42 43 44 45 46 47 48 49 50
000
ASUS41 KLWX 040710
RWRLWX

REGIONAL WEATHER ROUNDUP
NATIONAL WEATHER SERVICE BALTIMORE MD/WASHINGTON DC
300 AM EDT FRI SEP 04 2015

Note: "FAIR" indicates few or no clouds below 12,000 feet
with no significant weather and/or obstructions to visibility.
 TC=TEMPERATURE CELSIUS

 * =Non NWS site. Station does not report precipitation (e.g. rain,
    snow, etc.), thunder, or fog.

DCZ001-MDZ009-015-VAZ040>042-051-053>054-040800-
WASHINGTON METRO

CITY           SKY/WX    TMP DP  RH WIND       PRES   REMARKS
WASHINGTON NAT PTCLDY    78  69  73 NW6       29.91S
DULLES         PTCLDY    74  67  78 NW3       29.92S
ANDREWS AFB    PTCLDY    71  70  96 CALM      29.90S
FT BELVOIR     CLEAR     70  68  92 SE2       29.90S
QUANTICO       CLEAR     75  69  81 NW6       29.91S
COLLEGE PARK*  CLEAR     72  70  94 CALM      29.90S
LEESBURG*      CLEAR     73  72  94 NW3       29.94R
MANASSAS*      CLEAR     72  72 100 CALM      29.92S
GAITHERSBURG*  PTCLDY    72  66  83 CALM      29.96S

$$

MDZ006>007-011-014-040800-
BALTIMORE METRO

CITY           SKY/WX    TMP DP  RH WIND       PRES   REMARKS
BWI AIRPORT    MOCLDY    72  69  90 CALM      29.90R
MD SCIENCE CTR   N/A     82  67  60 MISG      29.90S
ANNAPOLIS      PTCLDY    76  71  85 CALM      29.88S
FORT MEADE*    MOCLDY    68  66  94 CALM      29.92S

$$

MDZ012-015-019>023-040800-
MARYLAND EASTERN SHORE

CITY           SKY/WX    TMP DP  RH WIND       PRES   REMARKS
OCEAN CITY     PTCLDY    72  69  90 CALM      29.88S
SALISBURY      PTCLDY    70  70 100 CALM      29.88F FOG
BAY BRIDGE AP*   N/A     79  72  78 W3        29.89S
CAMBRIDGE*     PTCLDY    72  68  88 CALM      29.88S

$$

MDZ017>025-040800-
SOUTHERN MARYLAND

CITY           SKY/WX    TMP DP  RH WIND       PRES   REMARKS
PATUXENT RIVER PTCLDY    70  68  93 NW3       29.89R
ST INIGOES     CLEAR     71  70  96 CALM      29.88S FOG
LEONARDTOWN*   NOT AVBL

$$

MDZ003>005-040800-
NORTH CENTRAL MARYLAND

CITY           SKY/WX    TMP DP  RH WIND       PRES   REMARKS
FREDERICK*     PTCLDY    70  70 100 CALM      29.95F FOG
HAGERSTOWN APT PTCLDY    73  68  84 E3        29.95S
WESTMINSTER*   PTCLDY    73  68  83 CALM      29.95R

$$

MDZ501>502-040800-
WESTERN MARYLAND

CITY           SKY/WX    TMP DP  RH WIND       PRES   REMARKS
OAKLAND*       CLEAR     64  63  94 NW3       30.09S
CUMBERLAND*      N/A     70  70 100 CALM      30.02S

$$

VAZ025>031-040800-
SHENANDOAH VALLEY

CITY           SKY/WX    TMP DP  RH WIND       PRES   REMARKS
WINCHESTER*    PTCLDY    68  68 100 CALM      29.95F FOG
FRONT ROYAL*   FAIR      70  68  94 S5        29.94F
LURAY*         FAIR      66  66 100 CALM      29.97F FOG
NEW MARKET*    FAIR      65  65  99 CALM      29.97S
STAUNTON*      CLEAR     67  66  95 CALM      30.01S FOG
WAYNESBORO*    FAIR      68  66  93 CALM      30.00S

$$

WVZ021-048>050-054>055-040800-
EASTERN WEST VIRGINIA PANHANDLE

CITY           SKY/WX    TMP DP  RH WIND       PRES   REMARKS
MARTINSBURG    PTCLDY    66  65  96 CALM      29.95S FOG
PETERSBURG*    FOG       65  65  99 CALM      30.00S VSB 1/2

$$

VAZ036>039-050-040800-
CENTRAL FOOTHILLS

CITY           SKY/WX    TMP DP  RH WIND       PRES   REMARKS
CHARLOTTESVILL CLEAR     72  68  87 CALM      29.93F
CULPEPER*      PTCLDY    69  68  98 CALM      29.93S FOG
ORANGE*        PTCLDY    70  68  94 CALM      29.94S
GORDONSVILLE*  FAIR      71  69  93 CALM      29.92S
WARRENTON*     FAIR      69  68  97 CALM      29.92S

$$

VAZ055>057-040800-
NORTH AND CENTRAL PIEDMONT

CITY           SKY/WX    TMP DP  RH WIND       PRES   REMARKS
FREDERICKSBRG* PTCLDY    72  72 100 CALM      29.90S
STAFFORD*      PTCLDY    69  68  94 CALM      29.95S FOG

$$

NCZ024-NYZ072-PAZ021-071-VAZ022-071-040800-
OTHER REGIONAL OBSERVATIONS

CITY           SKY/WX    TMP DP  RH WIND       PRES   REMARKS
NEW YORK CITY  PTCLDY    80  65  59 VRB3      29.94S
PHILADELPHIA   CLOUDY    78  70  76 CALM      29.90S
PITTSBURGH     MOCLDY    69  65  86 W8        30.01R
ROANOKE        CLEAR     71  66  84 SW3       30.00S
RICHMOND       CLEAR     76  70  82 NW5       29.90S
RALEIGH        PTCLDY    70  68  93 CALM      29.93R

$$

ANZ530>537-040800-
MARINE OBSERVATIONS

STATION/POSITION TIME  TEMP    WIND        PRES
                       AIR SEA DIR/SP/G
                 (UTC) (F)     (DEG/KT/KT) (MB)
THOMAS PT LIGHT  NOT AVBL
BALT KEY BRIDGE  0600   80     260/  5/  5 1012.0F
COVE POINT       0600   80     320/  3/  5 1012.6S
LEWISETTA        0600   78 82  290/  3/  4 1011.6S
SOLOMONS ISLAND  0600      82                N/A
PINEY POINT      0605           50/  1/  1   N/A

$$




USA.gov is the U.S. government's official web portal to all federal, state and local government web resources and services.